Showing default

KUIPER-00289, 68591

Orbit data source: Space-Track

KUIPER-00289, 68591 is a payload satellite owned by Kuiper Systems (US) in LEO that was launched on Sat, 04 Apr 2026 UTC via an ATLAS V 551 launch vehicle from the Air Force Eastern Test Range (AFETR). Payload-class satellites include a variety of spacecraft equipped with specific instruments for various scientific and technological missions. These include communications satellites like Starlink; space stations such as the ISS; scientific satellites like the Hubble; Earth observation satellites from companies like Planet Labs, Umbra, and HawkEye 360; GPS; miniature CubeSats for education and research; and military/defense satellites.

Loading next visibility...
Identifier
68591, 2026-072U
Orbit
LEO
Country
Flag of USUS
Related business
Manufacturer
Kuiper Systems
Mission
Operational spacecraft
Bus & Motor
KUIPER, Unknown motor
Mass
~490 kg wet, ~490 kg dry
Launch date (UTC)
2026-04-04 (2 months ago)
Launch vehicle
ATLAS V 551
Launch site
Air Force Eastern Test Range (AFETR)
Object type
Payload
Rocket body
Debris
Shape & HBR
Unknown shape, 3.4 m
Radar Cross Section
Large (>1 m²)

Expand to show TLE details & history
Last TLE update: 1 week ago

TLE from 1 week ago
0 KUIPER-00289
1 68591U 26072U   26155.25004630 -.00945347  00000-0 -36755-1 0  9996
2 68591  51.8702 240.0880 0011580 351.9830 268.7785 15.27971993  5573
Epoch: 2026-06-04T06:00Z
TLE epoch observation values (Epoch: 2026-06-04T06:00:04.000Z)
Latitude
-51.06553°
Longitude
152.44309°
Altitude
499.588 km
Speed
7.614 km/s
True Right ascension
09h 00m 37s
True Declination
-50° 53' 27"
Sunlit
Object was in daylight at epoch
Visualization orbit readout
Latitude
Unknown
Longitude
Unknown
Altitude
Unknown
Speed
Unknown
Apparent Right ascension
Unknown
Apparent Declination
Unknown
Sunlit
N/A
Visualization observer readout
Local Sidereal Time
03:33:44
Azimuth
Unknown
Elevation
Unknown
Doppler factor
Unknown
Orbital elements
Apogee altitude
490.286 km
Perigee altitude
474.397 km
Semi-major axis
6,860.478 km
Eccentricity
0.00116
Inclination
51.8702°
RAAN
240.088°
Arg. of periapsis
351.983°
True anomaly
268.64584°
Mean anomaly
268.7785°
Eccentric anomaly
268.71217°
Mean motion
3.81954 °/min
Orbital period
94.25 mins
BSTAR
-0.036755
Loading maneuver chart data...
Computing Atmospheric mass density...
Loading historical data...
Loading historical data...
Loading historical data...
Loading historical data...
Loading historical data...
Loading historical data...
Loading historical data...

Documentation

Showing up to 5 results
|